Vertical_Velocity
-3 -0 2 2 -5 3 3 -3 0 2 2 -1 -4 -1 -1 -0 -1 0 -2 -3 -3 -3 -3 -2 -2 0 0 1 -0 -0 0 -0 -1 -0 -0 1 1 2 2 1 0 -1 -0 -1 -1
-6 2 -0 1 -1 3 1 4 -0 -0 -4 2 -1 -2 -2 -1 -1 0 -1 -1 -2 -2 -1 0 1 -0 -0 0 -0 -0 -1 -0 -2 -2 -2 -1 -1 -1 0 -1 -1 -0 -1 -1 -2
-0 2 3 -4 -4 3 1 5 3 -1 -0 1 -2 -2 -1 -1 -1 1 -2 -0 -1 -2 0 -0 -1 1 -1 -1 -1 -1 -1 -0 -1 -1 -0 1 -0 0 -0 -1 1 -1 1 1 0
-5 5 0 -1 -9 11 3 2 2 2 1 -2 -1 -1 -1 -0 -2 -2 -2 -0 -2 -2 -1 -0 -1 -1 0 1 1 1 1 0 -0 -1 -1 -2 -2 -0 -1 -0 -0 0 1 1 0
-2 -2 4 -6 -4 5 2 4 0 -1 -0 -4 -0 -2 0 1 -1 -0 -0 1 -0 -0 -0 -1 -1 -0 1 0 1 0 -0 -0 0 -1 0 -1 -1 -1 -0 -1 -1 -0 -0 -1 -1
-3 0 -2 -2 5 -3 3 4 1 -2 -2 -2 -1 -1 -0 -1 -1 0 -0 -0 -0 0 -0 1 -0 1 0 1 1 1 0 0 -1 -0 1 -1 -0 -1 0 -2 -1 -1 -2 -1 -1
1 -0 -7 5 1 -1 3 1 -0 -1 -3 -0 -2 -1 -1 -0 1 -1 -0 -1 0 1 0 0 -0 1 2 0 -0 -1 -1 -1 -2 -0 0 -2 -0 -1 -1 -3 -1 -1 -0 -3 -3
-0 -6 5 -1 1 0 2 1 -0 -1 -0 0 -1 -1 -2 -0 1 -1 -0 -0 -1 -2 -2 -1 -0 1 -0 -1 -0 -1 -1 0 0 0 -0 0 -1 -1 -1 -2 -1 -1 -1 -2 -2
-4 2 -1 -1 3 3 0 -1 -2 1 0 -0 0 -1 -2 -1 1 0 -0 -1 -1 -1 -0 0 1 0 -1 -0 -2 -1 -1 0 -0 -0 -2 -0 -1 -1 -0 -2 -1 -3 -2 -3 -1
-2 -2 -3 1 4 0 -0 -1 1 1 -1 -1 1 1 1 -1 -0 -0 -0 -1 -1 0 1 -0 -0 -1 -1 -1 -0 -0 -0 -1 -1 -0 -2 1 -6 3 0 -1 -1 -1 -1 -1 -1
-2 1 -1 3 -0 0 1 1 1 -1 -1 -1 -1 -0 -1 -1 0 -0 -0 -0 -0 -1 -2 -1 -0 -0 0 -0 -1 -1 -1 -1 -1 1 3 -0 -1 -1 0 -0 -0 0 -0 2 0
-0 1 0 2 -0 -0 2 2 2 0 -1 -1 -1 -0 -1 -0 0 -0 -0 -1 -1 -1 -1 -0 -2 -1 -2 -2 -1 -1 -1 1 -0 -0 2 0 -2 -1 -0 -0 1 1 1 2 1
2 -1 1 1 1 1 1 1 -0 0 -1 -0 -0 -0 -1 -1 -0 -0 -1 -1 -0 -0 0 -1 -2 -1 -2 -1 -2 -2 1 1 -1 0 -3 0 4 1 1 1 1 2 2 2 1
2 -1 -2 1 1 2 1 2 -0 -3 -2 -1 -0 -0 0 -1 -1 -1 -1 -0 -1 0 -0 -1 -1 -2 -1 -1 -1 -1 -2 -1 -1 -2 -1 -4 2 -5 -0 3 1 2 2 1 0
1 -0 -2 1 1 1 1 1 -1 -2 0 -1 -0 1 0 -0 -0 -1 -1 -1 -1 -1 -0 -1 -1 -1 -1 -2 -3 -3 -2 -0 -1 1 -0 -1 1 3 -0 -0 0 2 2 -0 -0
1 1 0 -1 -0 0 1 1 -0 -0 -0 0 0 -0 -0 -0 -1 -2 -1 -0 -0 -1 -1 -2 -0 -0 -1 -2 -3 -3 -2 0 5 1 -0 -2 -4 -1 -0 -0 -1 -0 -1 -0 -0
1 0 -0 0 -0 -0 1 1 -1 -0 -1 -1 0 -1 -1 -1 -1 -2 -1 -1 -0 -1 -0 -0 0 -1 -1 -0 -1 -2 -2 1 1 -4 -7 -2 -2 -0 -4 -3 -1 -2 -2 -0 -1
2 1 -0 -0 -1 0 -0 1 1 -1 -1 -2 -1 -0 -1 -0 -1 -1 -2 -1 -0 -0 -0 -0 -0 -1 -1 -1 -0 -1 -4 -8 -6 -2 0 -3 -4 -2 -1 -1 -4 -3 -1 -2 -1
1 2 1 0 -0 -0 0 1 1 -2 -1 -1 -1 -0 -1 -2 -2 -1 -0 -1 -0 -0 -0 -0 -2 -2 -2 -0 0 1 -3 -0 2 1 -1 0 -2 -6 -1 -1 0 -2 -1 -2 -2
-1 1 0 -0 -0 1 1 1 0 -1 -0 -1 -1 1 -1 -1 -2 -1 -1 -0 -0 -0 -1 -0 -1 -2 -1 -1 -1 -1 0 -0 -3 -7 -5 1 -0 -2 -3 -1 -1 -3 -1 -1 -1
-1 1 -1 -0 -0 -0 3 1 -1 -1 -0 -0 -1 -1 -0 -0 -0 -1 0 -0 0 -0 -1 -0 -1 -1 -1 -1 -1 -1 -2 -2 -1 -4 -4 -4 -3 0 -2 -4 -3 -2 -2 -2 -2
-1 2 0 0 -1 2 2 1 -1 -1 0 -0 0 -0 -0 -1 -0 0 0 0 -0 0 -0 -0 -1 -1 -1 -2 -1 -3 -2 -1 -0 -0 -3 2 -6 -4 -3 -4 -1 -2 -3 -3 -2
1 2 -1 -1 2 2 1 1 1 2 0 0 -1 -0 1 -1 0 0 2 1 1 -0 0 1 -0 -1 -1 -1 -2 -1 0 0 -2 0 2 -5 1 -3 -2 -4 -1 -1 -2 -1 -1
1 0 0 -0 3 -0 -0 0 2 0 0 0 -1 -0 0 -1 1 1 0 1 1 1 1 0 -0 1 0 -1 -3 -2 -0 0 -1 0 0 2 1 5 0 1 -1 -1 -1 -1 -0
3 2 1 1 2 -1 -3 3 1 2 1 -0 2 -0 -0 -0 -1 1 0 1 1 1 1 0 0 2 -1 -1 1 -2 -0 -2 1 -3 0 -1 3 -0 -2 -1 -2 -1 -2 -2 0
0 1 2 1 5 1 -1 7 1 0 0 0 2 -1 0 1 -0 0 1 0 -1 0 0 -0 2 1 -2 -1 -3 1 -1 -1 -1 -5 1 -4 5 -4 0 -1 -0 -1 -2 -2 -0
4 0 2 2 2 2 -1 3 1 -1 1 1 -0 -0 0 1 0 1 1 0 1 0 -1 0 -2 -1 7 -2 2 -1 1 -0 -1 -3 -2 -2 -2 -0 3 -0 0 -1 -2 -0 1
Height
5873 5873 5874 5879 5879 5880 5883 5882 5883 5886 5887 5890 5889 5889 5892 5892 5894 5895 5896 5897 5896 5896 5895 5894 5894 5894 5894 5893 5893 5893 5893 5892 5891 5890 5890 5889 5887 5886 5885 5883 5881 5880 5878 5876 5873
5874 5873 5877 5879 5882 5880 5883 5884 5885 5887 5889 5891 5893 5891 5894 5895 5896 5898 5899 5899 5899 5898 5898 5897 5897 5897 5896 5895 5894 5894 5893 5892 5891 5890 5889 5888 5887 5885 5884 5881 5879 5877 5875 5872 5870
5873 5875 5878 5880 5882 5882 5883 5884 5886 5890 5891 5893 5894 5894 5895 5897 5899 5899 5900 5901 5901 5900 5900 5899 5899 5898 5897 5896 5895 5894 5893 5891 5890 5889 5887 5885 5884 5882 5881 5878 5876 5873 5870 5867 5864
5875 5876 5879 5881 5881 5882 5884 5886 5888 5892 5892 5895 5896 5896 5897 5898 5901 5901 5901 5901 5901 5901 5901 5899 5899 5898 5896 5895 5894 5893 5892 5890 5889 5888 5886 5884 5882 5880 5877 5875 5872 5869 5866 5862 5859
5875 5878 5879 5882 5881 5884 5885 5888 5890 5893 5895 5896 5898 5898 5899 5900 5902 5902 5901 5901 5901 5901 5900 5899 5898 5896 5895 5894 5893 5891 5890 5888 5887 5885 5883 5881 5879 5877 5874 5871 5868 5865 5861 5858 5855
5877 5880 5881 5881 5883 5885 5886 5889 5891 5894 5896 5897 5899 5900 5901 5901 5902 5902 5902 5901 5901 5900 5899 5898 5896 5895 5893 5892 5891 5889 5888 5886 5884 5882 5880 5879 5877 5874 5871 5868 5865 5861 5858 5855 5851
5880 5882 5880 5882 5885 5885 5886 5889 5891 5895 5897 5898 5899 5901 5901 5903 5902 5901 5901 5901 5900 5899 5899 5896 5894 5893 5891 5890 5888 5886 5885 5883 5882 5879 5877 5876 5874 5870 5867 5865 5861 5858 5854 5850 5845
5881 5881 5882 5884 5885 5886 5886 5889 5891 5895 5897 5898 5899 5901 5902 5902 5902 5902 5902 5901 5899 5898 5897 5895 5893 5892 5890 5888 5886 5885 5883 5881 5879 5877 5875 5873 5870 5867 5864 5861 5858 5854 5850 5845 5841
5881 5883 5885 5884 5885 5886 5886 5888 5892 5895 5896 5897 5899 5901 5902 5902 5902 5902 5901 5900 5898 5897 5896 5894 5893 5890 5889 5886 5885 5883 5881 5879 5877 5874 5873 5870 5866 5864 5860 5858 5854 5850 5845 5841 5836
5882 5884 5884 5885 5885 5885 5887 5889 5892 5894 5896 5897 5899 5902 5901 5901 5901 5900 5900 5899 5898 5896 5895 5893 5891 5889 5887 5885 5883 5881 5879 5877 5874 5873 5869 5867 5863 5861 5857 5854 5851 5845 5840 5835 5830
5882 5883 5884 5886 5885 5886 5889 5890 5893 5894 5895 5896 5898 5899 5899 5900 5900 5899 5899 5898 5897 5896 5894 5892 5890 5888 5886 5884 5881 5879 5877 5875 5872 5870 5868 5865 5860 5857 5855 5851 5846 5840 5835 5830 5823
5882 5883 5885 5886 5886 5888 5889 5890 5890 5893 5894 5895 5896 5897 5898 5899 5899 5898 5898 5898 5896 5894 5892 5891 5888 5887 5885 5883 5881 5878 5876 5874 5872 5869 5866 5863 5858 5854 5851 5846 5840 5835 5829 5823 5817
5881 5883 5884 5886 5887 5889 5890 5889 5891 5892 5894 5895 5895 5896 5898 5899 5898 5898 5898 5896 5895 5893 5891 5889 5888 5886 5884 5882 5880 5878 5875 5873 5871 5868 5863 5861 5857 5850 5847 5841 5836 5830 5824 5817 5810
5881 5883 5884 5886 5889 5889 5890 5890 5891 5893 5894 5895 5895 5896 5897 5897 5898 5898 5897 5896 5894 5892 5890 5888 5886 5885 5883 5881 5880 5878 5875 5871 5868 5864 5860 5856 5854 5845 5841 5836 5830 5825 5819 5811 5803
5882 5883 5884 5886 5888 5889 5890 5890 5892 5894 5895 5896 5894 5895 5896 5897 5898 5897 5896 5894 5892 5891 5890 5888 5886 5884 5883 5881 5879 5877 5873 5869 5865 5861 5857 5852 5848 5842 5837 5832 5827 5821 5813 5805 5796
5880 5882 5884 5886 5887 5889 5889 5890 5891 5894 5893 5894 5894 5894 5895 5895 5895 5895 5894 5893 5891 5890 5888 5887 5884 5883 5881 5879 5877 5875 5872 5868 5864 5859 5854 5848 5844 5840 5834 5828 5821 5815 5807 5798 5790
5878 5880 5883 5884 5886 5887 5888 5889 5892 5891 5894 5894 5893 5894 5894 5894 5893 5893 5892 5892 5890 5889 5887 5885 5883 5881 5880 5877 5875 5873 5870 5868 5863 5856 5851 5846 5842 5836 5831 5825 5817 5809 5800 5793 5784
5875 5878 5880 5882 5884 5885 5887 5889 5890 5890 5891 5891 5892 5892 5892 5892 5891 5891 5891 5890 5889 5888 5886 5885 5883 5881 5879 5876 5874 5870 5867 5862 5859 5855 5851 5846 5841 5836 5829 5820 5811 5803 5794 5786 5777
5873 5875 5877 5879 5881 5883 5885 5886 5887 5888 5889 5889 5889 5890 5890 5889 5890 5889 5889 5889 5888 5887 5886 5884 5882 5880 5877 5874 5872 5868 5865 5863 5860 5856 5849 5845 5840 5831 5824 5816 5807 5798 5788 5779 5771
5870 5872 5874 5875 5877 5879 5881 5883 5883 5884 5886 5886 5886 5887 5887 5887 5887 5886 5887 5887 5886 5886 5885 5883 5881 5879 5877 5874 5871 5867 5864 5860 5854 5848 5845 5840 5833 5826 5819 5811 5802 5793 5783 5773 5764
5865 5869 5870 5871 5873 5875 5878 5879 5879 5881 5882 5883 5883 5883 5883 5883 5883 5884 5885 5886 5884 5884 5883 5882 5880 5879 5876 5873 5870 5866 5862 5858 5853 5848 5841 5835 5831 5823 5815 5807 5798 5788 5777 5767 5758
5860 5864 5865 5867 5870 5872 5873 5874 5876 5876 5878 5879 5879 5880 5880 5880 5880 5881 5882 5882 5882 5882 5881 5880 5878 5876 5875 5872 5868 5864 5860 5856 5851 5847 5840 5833 5826 5818 5811 5803 5793 5784 5773 5762 5752
5856 5858 5859 5862 5865 5867 5868 5869 5871 5872 5873 5874 5876 5877 5877 5877 5878 5878 5878 5879 5879 5879 5878 5878 5876 5874 5872 5871 5867 5862 5857 5853 5849 5845 5839 5832 5826 5817 5809 5800 5790 5780 5769 5758 5747
5849 5851 5854 5857 5860 5861 5862 5864 5866 5867 5869 5870 5871 5872 5873 5873 5874 5874 5875 5876 5875 5875 5875 5874 5873 5871 5870 5867 5864 5860 5856 5851 5845 5840 5836 5829 5823 5816 5806 5796 5787 5776 5765 5753 5741
5842 5845 5847 5850 5853 5854 5855 5859 5860 5862 5863 5864 5866 5867 5868 5870 5870 5871 5871 5871 5872 5871 5871 5871 5869 5868 5866 5863 5861 5857 5853 5849 5843 5837 5831 5826 5818 5811 5801 5793 5783 5772 5761 5749 5736
5835 5838 5840 5844 5846 5848 5850 5854 5855 5855 5858 5859 5860 5861 5863 5865 5866 5866 5867 5867 5867 5867 5867 5866 5865 5864 5861 5859 5856 5854 5849 5846 5840 5833 5828 5821 5816 5807 5798 5788 5778 5768 5757 5744 5731
5826 5830 5833 5836 5839 5841 5844 5847 5848 5849 5852 5853 5854 5856 5857 5858 5860 5860 5861 5862 5862 5862 5861 5861 5860 5859 5858 5855 5853 5851 5846 5842 5838 5830 5825 5818 5811 5803 5794 5785 5775 5764 5753 5740 5727